Baltimore, MD

7:27 PM EDT on April 23, 2018 (GMT -0400)
Baltimore-Washington International

Weather History for KBWI - May, 2013

Change the Weather History Date:

Saturday, May 25, 2013

  Actual Average Record
Temperature  
Mean Temperature 55 °F 66 °F  
Max Temperature 66 °F 76 °F 94 °F (1991)
Min Temperature 44 °F 55 °F 38 °F (1956)
Degree Days  
Heating Degree Days 10 3  
Month to date heating degree days 126 121  
Since 1 July heating degree days 4476 4736  
Cooling Degree Days 0 3  
Month to date cooling degree days 61 46  
Year to date cooling degree days 87 60  
Growing Degree Days 6 (Base 50)    
Moisture  
Dew Point 33 °F    
Average Humidity 47    
Maximum Humidity 65    
Minimum Humidity 28    
Precipitation  
Precipitation 0.00 in 0.14 in 2.22 in (1952)
Month to date precipitation 3.28 3.19  
Year to date precipitation 13.71 16.23  
Snow  
Snow 0.00 in 0.00 in - ()
Month to date snowfall 0.0 0.0  
Since 1 July snowfall 8.0 20.1  
Snow Depth 0.00 in    
Sea Level Pressure  
Sea Level Pressure 30.10 in    
Wind  
Wind Speed 14 mph (WNW)    
Max Wind Speed 24 mph    
Max Gust Speed 33 mph    
Visibility 10 miles    
Events      
T = Trace of Precipitation, MM = Missing Value Source: NWS Daily Summary

Daily Weather History Graph

Daily Weather History Graph

Search for Another Location

Airport or City:

Astronomy

May. 25, 2013 Rise Set
Actual Time 5:45 AM EDT 8:21 PM EDT
Civil Twilight 5:14 AM EDT 8:53 PM EDT
Nautical Twilight 4:36 AM EDT 9:31 PM EDT
Astronomical Twilight 3:52 AM EDT 10:15 PM EDT
Moon 9:07 PM EDT (5/25) 6:10 AM EDT (5/25)
Length of Visible Light 15h 38m
Length of Day
14h 36m
Full, 100% of the Moon is Illuminated
May 25
Full
May 31
Last Quarter
Jun 8
New
Jun 16
First Quarter
Jun 23
Full

Hourly Weather History & Observations

Time (EDT) Temp. Windchill Dew Point Humidity Pressure Visibility Wind Dir Wind Speed Gust Speed Precip Events Conditions
12:54 AM 48.9 °F - 32.0 °F 52% 30.12 in 10.0 mi WNW 10.4 mph - N/A   Mostly Cloudy
1:54 AM 48.0 °F - 30.9 °F 52% 30.11 in 10.0 mi WNW 12.7 mph - N/A   Mostly Cloudy
2:54 AM 46.9 °F - 32.0 °F 56% 30.10 in 10.0 mi WNW 11.5 mph 23.0 mph N/A   Scattered Clouds
3:54 AM 45.0 °F 38.2 °F 32.0 °F 60% 30.11 in 10.0 mi WNW 15.0 mph 21.9 mph N/A   Partly Cloudy
4:54 AM 45.0 °F 38.5 °F 33.1 °F 63% 30.12 in 10.0 mi West 13.8 mph - N/A   Partly Cloudy
5:54 AM 45.0 °F 38.2 °F 33.1 °F 63% 30.12 in 10.0 mi WNW 15.0 mph - N/A   Partly Cloudy
6:54 AM 46.0 °F 39.9 °F 34.0 °F 63% 30.13 in 10.0 mi WNW 13.8 mph 21.9 mph N/A   Partly Cloudy
7:54 AM 48.9 °F - 34.0 °F 56% 30.14 in 10.0 mi WNW 12.7 mph 23.0 mph N/A   Clear
8:54 AM 52.0 °F - 34.0 °F 50% 30.14 in 10.0 mi WNW 16.1 mph 25.3 mph N/A   Partly Cloudy
9:54 AM 54.0 °F - 33.1 °F 45% 30.14 in 10.0 mi NW 17.3 mph 26.5 mph N/A   Scattered Clouds
10:54 AM 55.9 °F - 35.1 °F 45% 30.13 in 10.0 mi WNW 19.6 mph 26.5 mph N/A   Clear
11:54 AM 59.0 °F - 34.0 °F 39% 30.12 in 10.0 mi NW 17.3 mph 27.6 mph N/A   Partly Cloudy
12:54 PM 59.0 °F - 34.0 °F 39% 30.10 in 10.0 mi NW 15.0 mph 27.6 mph N/A   Scattered Clouds
1:54 PM 62.1 °F - 34.0 °F 35% 30.09 in 10.0 mi NW 18.4 mph 25.3 mph N/A   Scattered Clouds
2:54 PM 64.0 °F - 33.1 °F 31% 30.08 in 10.0 mi NW 18.4 mph 29.9 mph N/A   Scattered Clouds
3:54 PM 64.9 °F - 34.0 °F 32% 30.07 in 10.0 mi WNW 16.1 mph 26.5 mph N/A   Scattered Clouds
4:54 PM 63.0 °F - 33.1 °F 33% 30.07 in 10.0 mi WNW 13.8 mph 25.3 mph N/A   Scattered Clouds
5:54 PM 66.0 °F - 33.1 °F 29% 30.06 in 10.0 mi NW 13.8 mph 25.3 mph N/A   Scattered Clouds
6:54 PM 64.9 °F - 30.0 °F 27% 30.06 in 10.0 mi WNW 16.1 mph 31.1 mph N/A   Scattered Clouds
7:54 PM 63.0 °F - 30.9 °F 30% 30.07 in 10.0 mi WNW 13.8 mph 24.2 mph N/A   Scattered Clouds
8:54 PM 59.0 °F - 32.0 °F 36% 30.08 in 10.0 mi West 8.1 mph - N/A   Scattered Clouds
9:54 PM 57.0 °F - 33.1 °F 40% 30.10 in 10.0 mi West 8.1 mph - N/A   Clear
10:54 PM 53.1 °F - 36.0 °F 52% 30.12 in 10.0 mi West 6.9 mph - N/A   Clear
11:54 PM 52.0 °F - 35.1 °F 53% 30.14 in 10.0 mi West 6.9 mph - N/A   Partly Cloudy